15min,AgWx,beryljct,423,10JUN2021:00:00:00,66.3,12.88,66.7,65.7,66.1,66.5,65.7,26,28,25,0.562,30.7,32.4,29.6,7.826,7.9,179,11,11.8,0.00074,0.00099,65.2,66.1,10,0,0,.,8.86,0.00,0.00
15min,AgWx,beryljct,423,10JUN2021:00:15:00,65.8,12.88,66.0,66.7,66.3,67.0,65.7,26,28,25,0.570,30.4,31.8,29.7,8.05,9.6,179,11,14.1,0.00087,0.00113,65.0,66.1,9,0,0,.,8.87,0.00,0.00
15min,AgWx,beryljct,423,10JUN2021:00:30:00,65.5,12.87,66.1,65.9,66.2,66.6,65.8,26,26,25,0.569,30.1,30.4,29.7,10.08,8.6,175,9.7,14.0,0.00080,0.00106,64.8,66.0,9,0,0,.,8.86,0.00,0.00
15min,AgWx,beryljct,423,10JUN2021:00:45:00,65.1,12.85,64.3,64.3,65.2,65.9,64.3,28,30,26,0.597,31.0,32.5,30.2,7.015,8.5,189,9.6,12.5,0.00075,0.00100,64.6,66.0,9,0,0,.,8.86,0.00,0.00
15min,AgWx,beryljct,423,10JUN2021:01:00:00,64.5,12.85,63.2,64.0,64.2,64.6,63.8,29,31,28,0.605,31.2,33.0,30.3,5.502,7.4,192,8.9,10.2,0.00064,0.00087,64.4,65.9,10,0,0,.,8.87,0.00,0.00
15min,AgWx,beryljct,423,10JUN2021:01:15:00,63.8,12.83,66.6,65.2,63.7,65.2,62.2,30,34,25,0.538,31.3,33.8,28.9,16.31,8.3,195,11,20.3,0.00068,0.00091,64.1,65.9,10,0,0,.,8.87,0.00,0.00
15min,AgWx,beryljct,423,10JUN2021:01:30:00,64.0,12.84,66.2,65.4,65.3,65.7,65.0,27,29,25,0.563,30.4,31.8,28.9,16.79,12.6,196,11,16.9,0.00101,0.00126,63.9,65.8,9,0,0,.,8.87,0.00,0.00
15min,AgWx,beryljct,423,10JUN2021:01:45:00,64.5,12.82,66.0,65.7,65.6,65.9,65.3,26,27,26,0.566,30.1,30.8,29.2,15.65,15.9,195,9.0,23.9,0.00117,0.00140,63.7,65.8,10,0,0,.,8.87,0.00,0.00
15min,AgWx,beryljct,423,10JUN2021:02:00:00,64.7,12.82,64.9,65.3,65.5,65.9,65.0,26,27,26,0.558,30.1,30.9,29.5,10.83,16.1,194,9.3,24.1,0.00117,0.00140,63.5,65.7,9,0,0,.,8.86,0.00,0.00
15min,AgWx,beryljct,423,10JUN2021:02:15:00,64.8,12.82,64.6,64.7,65.1,65.6,64.6,27,29,26,0.598,30.6,31.6,29.7,13.53,15.7,197,9.7,21.9,0.00112,0.00135,63.3,65.6,10,0,0,.,8.86,0.00,0.00
15min,AgWx,beryljct,423,10JUN2021:02:30:00,64.7,12.81,65.4,65.1,64.7,65.1,64.5,28,29,27,0.576,30.9,31.7,30.0,20.67,15.3,203,11,25.1,0.00109,0.00131,63.2,65.6,10,0,0,.,8.87,0.00,0.00
15min,AgWx,beryljct,423,10JUN2021:02:45:00,64.6,12.79,63.0,63.7,64.4,65.3,63.7,28,30,27,0.590,30.9,31.8,30.1,11.2,14.0,206,8.8,23.2,0.00103,0.00125,63.0,65.5,10,0,0,.,8.87,0.00,0.00
15min,AgWx,beryljct,423,10JUN2021:03:00:00,64.2,12.77,63.9,63.6,63.7,64.1,63.3,29,30,28,0.580,30.8,31.8,30.0,18.55,15.5,200,10,22.1,0.00105,0.00126,62.9,65.4,9,0,0,.,8.87,0.00,0.00
15min,AgWx,beryljct,423,10JUN2021:03:15:00,63.9,12.79,62.7,63.2,63.6,63.8,63.2,29,30,28,0.585,30.6,31.3,29.9,13.68,15.6,201,10,21.8,0.00106,0.00127,62.7,65.4,9,0,0,.,8.87,0.00,0.00
15min,AgWx,beryljct,423,10JUN2021:03:30:00,63.7,12.76,63.4,63.4,63.2,63.4,62.8,29,30,28,0.580,30.7,31.4,29.9,17.98,15.7,207,9.5,23.9,0.00103,0.00124,62.6,65.3,9,0,0,.,8.87,0.00,0.00
15min,AgWx,beryljct,423,10JUN2021:03:45:00,63.4,12.76,62.8,63.2,63.3,63.6,62.9,30,31,29,0.593,31.0,31.6,30.2,14.95,17.4,204,9.3,24.2,0.00109,0.00129,62.4,65.2,10,0,0,.,8.87,0.00,0.00
15min,AgWx,beryljct,423,10JUN2021:04:00:00,63.3,12.77,62.8,63.0,63.0,63.3,62.7,30,31,29,0.600,31.2,31.8,30.6,17.71,17.9,200,8.2,25.5,0.00109,0.00128,62.3,65.1,10,0,0,.,8.87,0.00,0.00
15min,AgWx,beryljct,423,10JUN2021:04:15:00,63.1,12.75,61.9,62.2,62.9,63.3,62.2,30,31,29,0.589,31.1,31.9,30.6,13.13,17.8,198,8.4,26.1,0.00108,0.00127,62.1,65.1,9,0,0,.,8.87,0.00,0.00
15min,AgWx,beryljct,423,10JUN2021:04:30:00,62.8,12.76,62.1,62.1,62.2,62.3,62.0,31,31,30,0.583,31.1,31.6,30.7,16.7,16.2,202,7.8,21.3,0.00232,0.00404,62.0,65.0,10,0,0,.,8.87,0.00,0.00
15min,AgWx,beryljct,423,10JUN2021:04:45:00,62.3,12.75,60.7,61.3,61.5,62.1,61.2,32,33,31,0.588,31.2,31.7,30.6,11.2,14.1,201,6.8,19.1,0.00208,0.00363,61.9,64.9,10,0,0,.,8.87,0.00,0.00
15min,AgWx,beryljct,423,10JUN2021:05:00:00,61.9,12.74,61.5,61.3,61.1,61.4,60.8,32,33,31,0.583,31.1,31.7,30.4,17.27,14.6,200,8.5,21.0,0.00208,0.00363,61.7,64.8,10,1,0,.,8.87,0.00,0.00
15min,AgWx,beryljct,423,10JUN2021:05:15:00,61.6,12.74,59.8,60.4,61.0,61.5,60.4,32,33,31,0.592,31.0,31.4,30.5,10.11,14.9,203,7.8,20.5,0.00214,0.00372,61.7,64.8,10,4,0,.,8.87,0.00,0.00
15min,AgWx,beryljct,423,10JUN2021:05:30:00,61.3,12.73,60.8,60.5,60.3,60.7,59.7,33,35,32,0.585,31.2,32.0,30.5,14.84,14.4,203,10,20.3,0.00210,0.00359,61.5,64.7,9,21,0,.,8.87,0.00,0.00
15min,AgWx,beryljct,423,10JUN2021:05:45:00,61.3,12.78,61.3,61.2,60.6,61.2,60.1,33,34,32,0.586,31.1,31.7,30.2,14.47,14.9,201,9.1,22.5,0.00232,0.00389,61.4,64.6,9,53,0,.,8.87,0.00,0.00
15min,AgWx,beryljct,423,10JUN2021:06:00:00,61.6,12.76,60.9,61.0,61.2,61.5,60.9,32,33,31,0.610,31.4,32.0,30.5,13.68,16.0,204,9.1,23.2,0.00256,0.00423,61.2,64.5,10,91,0,.,8.87,0.00,0.00
15min,AgWx,beryljct,423,10JUN2021:06:15:00,62.1,12.75,61.6,61.4,61.3,61.6,60.9,32,33,31,0.600,31.3,32.0,30.5,16.51,17.4,204,9.0,24.9,0.00280,0.00458,61.1,64.5,10,132,0,.,8.87,0.00,0.00
15min,AgWx,beryljct,423,10JUN2021:06:30:00,62.7,12.77,61.5,61.9,61.7,62.0,61.4,32,33,31,0.611,31.4,32.2,30.6,19.69,16.0,204,9.4,21.9,0.00287,0.00459,61.0,64.4,10,175,0,.,8.87,0.00,0.00
15min,AgWx,beryljct,423,10JUN2021:06:45:00,63.3,12.77,62.2,61.8,62.1,62.5,61.8,32,35,30,0.645,31.7,34.0,30.2,14.16,14.7,206,10,22.4,0.00298,0.00464,60.9,64.3,10,219,0,.,8.87,0.00,0.00
15min,AgWx,beryljct,423,10JUN2021:07:00:00,64.0,12.81,62.8,62.6,62.3,62.7,61.7,32,36,30,0.601,32.2,34.2,30.8,17.67,14.2,208,10,20.5,0.00311,0.00473,60.8,64.2,10,266,0,.,8.87,0.00,0.00
15min,AgWx,beryljct,423,10JUN2021:07:15:00,64.6,12.79,62.4,62.2,62.4,62.7,62.2,32,35,30,0.648,32.3,34.1,31.1,11.14,15.0,212,9.2,20.1,0.00340,0.00510,60.7,64.2,9,317,0,.,8.87,0.00,0.00
15min,AgWx,beryljct,423,10JUN2021:07:30:00,65.1,12.86,62.8,62.7,62.6,63.0,62.2,32,35,30,0.614,32.4,34.1,31.1,18.09,16.2,215,11,22.5,0.00369,0.00547,60.7,64.1,9,367,0,.,8.87,0.00,0.00
15min,AgWx,beryljct,423,10JUN2021:07:45:00,65.5,12.9,62.5,62.8,62.8,63.1,62.6,31,34,30,0.593,32.1,33.8,31.0,18.5,17.7,207,11,24.3,0.00402,0.00595,60.6,64.0,10,417,0,.,8.87,0.00,0.00
15min,AgWx,beryljct,423,10JUN2021:08:00:00,65.8,13.03,63.0,63.2,62.9,63.3,62.7,31,33,30,0.599,32.1,33.9,30.7,18.44,18.1,213,12,26.7,0.00426,0.00624,60.6,64.0,10,466,0,.,8.87,0.00,0.00
15min,AgWx,beryljct,423,10JUN2021:08:15:00,66.1,13.21,63.4,63.6,63.1,63.6,62.9,30,32,26,0.592,30.8,33.0,28.0,13.81,19.3,217,9.5,26.0,0.00460,0.00672,60.6,63.9,10,514,0,.,8.87,0.00,0.00
15min,AgWx,beryljct,423,10JUN2021:08:30:00,66.5,13.36,63.2,63.3,63.5,63.9,63.0,27,30,25,0.551,29.3,31.8,27.1,12.93,17.9,213,12,27.7,0.00483,0.00694,60.6,63.8,10,564,0,.,8.86,0.00,0.00
15min,AgWx,beryljct,423,10JUN2021:08:45:00,67.0,13.68,63.6,63.6,64.1,64.5,63.3,25,29,23,0.488,27.8,30.8,25.3,19.09,18.2,212,16,31.8,0.00517,0.00739,60.7,63.7,9,612,0,.,8.86,0.00,0.00
15min,AgWx,beryljct,423,10JUN2021:09:00:00,67.3,14.18,64.3,64.4,64.0,64.6,63.4,25,27,22,0.513,27.0,29.5,25.2,20.54,18.3,216,13,27.7,0.00539,0.00765,60.7,63.7,9,658,0,.,8.86,0.00,0.00
15min,AgWx,beryljct,423,10JUN2021:09:15:00,67.6,14.19,66.3,65.4,64.4,65.4,63.8,25,27,22,0.551,27.5,29.9,25.2,14.71,18.9,213,13,27.3,0.00563,0.00796,60.9,63.6,9,701,0,.,8.86,0.00,0.00
15min,AgWx,beryljct,423,10JUN2021:09:30:00,68.0,14.15,64.4,64.3,64.8,65.5,64.2,24,28,22,0.557,27.1,31.2,24.5,18.52,19.7,217,13,28.2,0.00592,0.00834,61.0,63.6,9,743,0,.,8.86,0.00,0.00
15min,AgWx,beryljct,423,10JUN2021:09:45:00,68.3,14.18,65.0,65.0,64.9,65.8,64.0,24,27,22,0.482,27.5,29.9,25.5,19.53,18.7,216,11,28.5,0.00603,0.00840,61.2,63.5,9,783,0,.,8.86,0.00,0.00
15min,AgWx,beryljct,423,10JUN2021:10:00:00,68.6,14.16,65.4,65.1,65.0,65.4,64.7,25,30,22,0.536,28.5,32.8,25.5,21.51,18.6,219,13,29.0,0.00617,0.00851,61.5,63.5,9,820,0,.,8.86,0.00,0.00
15min,AgWx,beryljct,423,10JUN2021:10:15:00,69.0,14.13,66.3,66.6,65.8,66.6,65.2,24,28,20,0.511,27.6,31.4,23.7,19.4,17.4,201,14,27.0,0.00642,0.00877,61.8,63.4,9,857,0,.,8.86,0.00,0.00
15min,AgWx,beryljct,423,10JUN2021:10:30:00,69.5,14.11,67.5,67.0,66.4,67.2,65.6,22,25,19,0.419,26.3,29.5,22.9,15.1,16.1,203,15,24.7,0.00663,0.00896,62.1,63.4,9,889,0,.,8.86,0.00,0.00
15min,AgWx,beryljct,423,10JUN2021:10:45:00,70.2,14.12,67.9,67.3,67.0,67.7,66.5,22,25,18,0.471,26.7,30.6,22.2,11.66,13.5,210,16,21.7,0.00670,0.00884,62.5,63.4,9,917,0,.,8.86,0.00,0.00
15min,AgWx,beryljct,423,10JUN2021:11:00:00,70.5,14.12,68.9,68.0,67.2,68.0,66.2,19,24,17,0.422,23.8,28.5,20.5,14.4,16.1,203,13,21.9,0.00705,0.00950,62.9,63.3,9,946,0,.,8.86,0.00,0.00
15min,AgWx,beryljct,423,10JUN2021:11:15:00,70.9,13.67,67.7,68.1,67.8,68.4,66.9,18,21,15,0.362,22.6,26.9,19.2,14.6,15.5,199,12,22.9,0.00725,0.00971,63.3,63.3,9,971,0,.,8.86,0.00,0.00
15min,AgWx,beryljct,423,10JUN2021:11:30:00,71.3,13.72,68.0,68.9,68.4,68.9,68.0,16,20,14,0.404,20.8,25.7,16.7,15.32,16.0,198,12,24.3,0.00748,0.01006,63.9,63.3,9,989,0,.,8.85,0.00,0.00
15min,AgWx,beryljct,423,10JUN2021:11:45:00,71.7,13.65,68.6,69.3,69.1,69.6,68.3,15,18,13,0.451,19.8,24.6,16.3,12.21,15.9,193,18,25.7,0.00765,0.01029,64.3,63.3,9,1005,0,.,8.86,0.00,0.00
15min,AgWx,beryljct,423,10JUN2021:12:00:00,71.9,13.64,72.5,70.2,68.8,70.2,68.2,17,21,13,0.407,22.1,28.1,16.5,12.87,14.9,215,21,22.7,0.00756,0.01005,64.9,63.4,9,1019,0,.,8.85,0.00,0.00
15min,AgWx,beryljct,423,10JUN2021:12:15:00,72.3,13.65,70.2,69.7,69.7,70.6,68.7,14,18,12,0.337,19.1,23.6,14.4,20.72,16.3,204,18,27.6,0.00787,0.01060,65.5,63.4,9,1033,0,.,8.86,0.00,0.00
15min,AgWx,beryljct,423,10JUN2021:12:30:00,72.6,13.66,70.3,70.9,69.5,70.9,68.9,14,18,9.7,0.337,17.5,24.5,10.2,12.56,14.5,208,16,25.7,0.00779,0.01037,66.0,63.4,9,1037,0,.,8.85,0.00,0.00
15min,AgWx,beryljct,423,10JUN2021:12:45:00,73.3,13.62,70.6,71.5,70.6,71.6,70.0,13,19,10,0.318,17.2,26.1,11.5,12.63,14.9,198,14,23.3,0.00797,0.01065,66.6,63.5,9,1040,0,.,8.85,0.00,0.00
15min,AgWx,beryljct,423,10JUN2021:13:00:00,73.9,13.63,69.3,70.2,70.9,72.1,69.9,12,18,8.8,0.401,16.2,24.6,8.5,11.05,13.5,182,20,21.0,0.00792,0.01048,67.1,63.5,9,1038,0,.,8.85,0.00,0.00
15min,AgWx,beryljct,423,10JUN2021:13:15:00,74.1,13.61,69.9,71.2,70.6,71.4,69.5,14,17,11,0.281,18.4,23.9,12.7,14.51,14.0,198,19,19.9,0.00783,0.01038,67.7,63.6,9,1030,0,.,8.85,0.00,0.00
15min,AgWx,beryljct,423,10JUN2021:13:30:00,74.5,13.61,71.5,71.6,71.4,72.4,70.2,13,19,9.4,0.316,18.5,26.0,10.9,17.6,12.8,191,20,23.3,0.00779,0.01025,68.3,63.7,9,1019,0,.,8.85,0.00,0.00
15min,AgWx,beryljct,423,10JUN2021:13:45:00,74.8,13.61,71.7,72.9,71.8,72.9,71.0,12,16,9.5,0.323,15.4,23.0,10.7,19.29,14.3,181,13,22.3,0.00791,0.01060,68.9,63.8,9,1003,0,.,8.85,0.00,0.00
15min,AgWx,beryljct,423,10JUN2021:14:00:00,74.9,13.63,71.9,73.0,72.1,73.4,71.3,14,18,11,0.361,20.3,25.5,14.5,17.78,12.5,198,18,20.2,0.00763,0.01005,69.5,63.9,9,985,0,.,8.85,0.00,0.00
15min,AgWx,beryljct,423,10JUN2021:14:15:00,75.3,13.55,72.3,72.1,72.4,73.9,71.7,14,19,9.5,0.463,19.5,27.6,11.2,11.25,11.2,191,31,26.7,0.00745,0.00973,70.0,64.0,9,964,0,.,8.84,0.00,0.00
15min,AgWx,beryljct,423,10JUN2021:14:30:00,75.8,13.53,73.2,73.2,72.8,74.4,71.7,14,17,12,0.405,21.3,25.8,17.2,11.05,12.6,204,13,19.3,0.00744,0.00989,70.5,64.1,9,938,0,.,8.84,0.00,0.00
15min,AgWx,beryljct,423,10JUN2021:14:45:00,76.6,13.5,72.8,74.3,73.5,74.5,72.6,14,19,10,0.399,21.2,29.1,13.1,14.12,8.8,193,21,15.2,0.00697,0.00892,71.1,64.2,9,911,0,.,8.85,0.00,0.00
15min,AgWx,beryljct,423,10JUN2021:15:00:00,77.4,13.49,74.0,74.0,73.7,74.2,72.9,13,18,8.4,0.486,19.5,28.2,9.9,8.59,11.5,183,18,19.7,0.00711,0.00946,71.6,64.4,9,880,0,.,8.84,0.00,0.00
15min,AgWx,beryljct,423,10JUN2021:15:15:00,78.3,13.46,74.8,74.9,74.1,75.2,73.2,16,22,11,0.444,25.0,32.8,16.5,6.686,5.8,228,36,11.8,0.00623,0.00768,72.0,64.5,9,846,0,.,8.84,0.00,0.00
15min,AgWx,beryljct,423,10JUN2021:15:30:00,79.3,13.54,73.0,73.7,74.3,75.0,73.4,15,21,9.5,0.349,23.3,32.1,13.1,3.705,7.0,235,25,14.8,0.00605,0.00769,72.5,64.7,9,790,0,.,8.84,0.00,0.00
15min,AgWx,beryljct,423,10JUN2021:15:45:00,79.6,13.49,74.7,73.6,73.3,73.9,72.8,14,20,9.0,0.397,21.0,30.4,11.0,7.563,7.9,278,27,13.7,0.00590,0.00765,73.0,64.9,9,761,0,.,8.85,0.00,0.00
15min,AgWx,beryljct,423,10JUN2021:16:00:00,79.6,13.46,72.5,73.2,73.6,74.7,72.4,12,18,6.5,0.282,16.8,27.7,4.5,10.35,9.4,298,24,16.1,0.00601,0.00803,73.4,65.0,9,737,0,.,8.85,0.00,0.00
15min,AgWx,beryljct,423,10JUN2021:16:15:00,79.2,13.48,72.8,72.9,73.2,73.8,72.6,14,20,9.2,0.373,20.4,28.9,11.5,14.67,10.6,264,23,17.4,0.00580,0.00793,73.7,65.2,9,686,0,.,8.85,0.00,0.00
15min,AgWx,beryljct,423,10JUN2021:16:30:00,78.8,13.51,73.2,73.3,73.2,73.9,72.6,12,17,9.1,0.306,17.7,25.2,11.5,10.02,9.9,288,16,16.2,0.00553,0.00758,74.0,65.4,9,651,0,.,8.85,0.00,0.00
15min,AgWx,beryljct,423,10JUN2021:16:45:00,78.5,13.5,73.4,73.4,73.3,73.8,72.9,10,15,6.1,0.170,13.6,22.9,2.5,1.315,9.0,302,22,15.3,0.00516,0.00710,74.3,65.6,9,606,0,.,8.85,0.00,0.00
15min,AgWx,beryljct,423,10JUN2021:17:00:00,78.5,13.49,72.4,72.6,73.6,74.5,72.6,9.9,16,6.1,0.336,13.1,23.2,2.5,6.489,7.4,302,24,15.0,0.00459,0.00625,74.4,65.7,9,557,0,.,8.85,0.00,0.00
15min,AgWx,beryljct,423,10JUN2021:17:15:00,78.2,13.5,72.6,73.1,73.1,73.9,72.2,11,15,8.4,0.276,14.6,22.9,9.4,7.475,10.1,297,15,15.4,0.00470,0.00674,74.6,65.9,9,508,0,.,8.85,0.00,0.00
15min,AgWx,beryljct,423,10JUN2021:17:30:00,77.7,13.5,72.4,72.1,72.8,73.5,72.1,10,14,8.6,0.330,14.1,21.0,9.5,13.22,10.7,291,14,14.9,0.00447,0.00657,74.7,66.1,9,459,0,.,8.85,0.00,0.00
15min,AgWx,beryljct,423,10JUN2021:17:45:00,77.0,13.45,70.9,71.6,71.9,72.7,71.5,10,12,8.2,0.310,13.4,16.9,8.1,9.86,11.2,285,12,16.3,0.00423,0.00636,74.6,66.3,9,409,0,.,8.85,0.00,0.00
15min,AgWx,beryljct,423,10JUN2021:18:00:00,76.3,13.18,71.0,71.0,71.8,72.9,70.6,11,16,7.6,0.263,13.3,22.3,6.3,4.319,8.3,295,19,13.0,0.00343,0.00512,74.6,66.5,10,359,0,.,8.85,0.00,0.00
15min,AgWx,beryljct,423,10JUN2021:18:15:00,75.9,13.11,71.9,71.9,71.9,72.3,70.9,9.4,14,7.4,0.225,10.8,19.3,5.9,8.62,8.4,309,12,12.2,0.00313,0.00482,74.4,66.6,9,308,0,.,8.85,0.00,0.00
15min,AgWx,beryljct,423,10JUN2021:18:30:00,75.4,13.1,70.5,70.3,71.9,72.6,70.3,8.9,13,7.0,0.318,9.4,17.6,4.7,6.204,6.5,312,16,9.9,0.00245,0.00384,74.2,66.8,10,258,0,.,8.85,0.00,0.00
15min,AgWx,beryljct,423,10JUN2021:18:45:00,74.8,13.07,68.7,70.7,71.3,72.5,70.3,9.1,13,6.0,0.262,9.5,17.0,1.7,3.508,6.2,316,15,12.2,0.00206,0.00337,74.0,66.9,9,209,0,.,8.85,0.00,0.00
15min,AgWx,beryljct,423,10JUN2021:19:00:00,73.9,13.02,69.6,70.2,70.0,71.1,69.3,11,15,8.2,0.219,12.0,19.2,7.3,4.823,4.8,306,9.4,7.0,0.00100,0.00141,73.7,67.1,9,162,0,.,8.85,0.00,0.00
15min,AgWx,beryljct,423,10JUN2021:19:15:00,72.7,13.02,65.0,67.7,68.7,71.4,67.2,11,16,6.4,0.316,11.6,20.6,2.2,3.551,4.8,288,11,6.9,0.00088,0.00124,73.4,67.2,9,119,0,.,8.85,0.00,0.00
15min,AgWx,beryljct,423,10JUN2021:19:30:00,70.9,13.01,69.9,70.0,67.7,70.0,66.3,10,15,5.9,0.148,9.1,17.8,-0.6,3.244,3.7,286,5.2,4.9,0.00058,0.00087,73.0,67.3,9,79,0,.,8.85,0.00,0.00
15min,AgWx,beryljct,423,10JUN2021:19:45:00,69.1,12.98,60.0,58.9,66.7,70.2,58.9,14,39,5.8,0.569,12.6,34.6,-1.0,1.337,2.8,268,30,3.4,0.00032,0.00052,72.7,67.4,9,43,0,.,8.85,0.00,0.00
15min,AgWx,beryljct,423,10JUN2021:20:00:00,66.0,12.97,61.9,59.2,59.6,61.3,58.2,22,31,16,0.269,20.1,28.2,12.6,4.998,2.9,258,38,5.4,0.00017,0.00029,72.2,67.5,10,9,0,.,8.85,0.00,0.00
15min,AgWx,beryljct,423,10JUN2021:20:15:00,62.9,12.96,55.1,58.2,60.2,62.0,58.2,13,18,9.0,0.299,9.5,15.0,2.2,5.853,5.8,249,2.0,6.7,0.00058,0.00080,71.8,67.6,9,2,0,.,8.86,0.00,0.00
15min,AgWx,beryljct,423,10JUN2021:20:30:00,60.0,12.95,51.4,54.3,54.3,57.7,52.5,23,29,16,0.356,17.2,21.2,10.9,4.319,3.7,249,7.2,5.8,0.00023,0.00036,71.3,67.6,9,0,0,.,8.86,0.00,0.00
15min,AgWx,beryljct,423,10JUN2021:20:45:00,57.7,12.94,53.3,51.2,53.1,55.5,50.9,26,32,18,0.380,19.2,24.6,12.8,3.069,3.6,194,50,8.9,0.00020,0.00031,70.8,67.7,9,0,0,.,8.87,0.00,0.00
15min,AgWx,beryljct,423,10JUN2021:21:00:00,56.3,12.93,57.1,55.5,55.0,60.6,51.4,19,27,9.2,0.332,12.8,19.0,1.2,13.59,5.4,29,57,13.6,0.00043,0.00061,70.4,67.7,9,0,0,.,8.87,0.00,0.00
15min,AgWx,beryljct,423,10JUN2021:21:15:00,56.8,12.92,58.2,57.4,57.9,59.0,55.6,18,22,15,0.320,14.6,17.0,12.1,9.29,10.5,69,7.3,13.9,0.00085,0.00106,69.9,67.8,9,0,0,.,8.87,0.00,0.00
15min,AgWx,beryljct,423,10JUN2021:21:30:00,56.8,12.92,54.9,54.9,56.2,57.7,54.9,20,21,17,0.299,15.1,16.5,13.6,4.604,6.7,66,9.9,9.5,0.00056,0.00075,69.4,67.8,9,0,0,.,8.86,0.00,0.00
15min,AgWx,beryljct,423,10JUN2021:21:45:00,56.0,12.91,55.0,55.1,54.8,55.5,54.2,18,20,15,0.249,12.1,15.0,9.3,1.622,2.9,41,12,5.3,0.00015,0.00027,68.9,67.8,9,0,0,.,8.86,0.00,0.00
15min,AgWx,beryljct,423,10JUN2021:22:00:00,54.8,12.89,55.4,55.1,54.7,55.3,53.8,17,19,15,0.232,10.7,12.8,8.5,2.828,1.3,30,20,3.0,-0.00014,-0.00016,68.5,67.8,9,0,0,.,8.87,0.00,0.00
15min,AgWx,beryljct,423,10JUN2021:22:15:00,54.0,12.89,53.6,52.2,53.4,55.1,52.0,18,21,16,0.259,11.3,13.3,9.0,8.64,4.8,54,11,8.8,0.00037,0.00053,68.1,67.8,9,0,0,.,8.87,0.00,0.00
15min,AgWx,beryljct,423,10JUN2021:22:30:00,53.8,12.89,54.7,54.0,53.6,54.1,52.3,18,19,17,0.241,10.6,11.6,9.7,9.23,7.7,58,9.0,10.4,0.00061,0.00079,67.6,67.7,10,0,0,.,8.87,0.00,0.00
15min,AgWx,beryljct,423,10JUN2021:22:45:00,53.7,12.89,53.4,53.1,53.5,54.0,53.0,18,19,17,0.245,10.6,11.4,9.4,6.927,6.5,58,8.5,10.1,0.00053,0.00071,67.2,67.7,9,0,0,.,8.87,0.00,0.00
15min,AgWx,beryljct,423,10JUN2021:23:00:00,53.3,12.88,52.9,52.0,52.6,53.5,51.9,18,19,16,0.246,10.3,11.3,8.9,6.16,5.3,59,9.8,8.0,0.00041,0.00058,66.8,67.6,9,0,0,.,8.87,0.00,0.00
15min,AgWx,beryljct,423,10JUN2021:23:15:00,52.5,12.87,50.3,51.1,51.4,52.0,50.8,19,19,17,0.237,10.1,10.9,8.7,4.472,5.0,46,8.7,7.2,0.00037,0.00052,66.4,67.6,9,0,0,.,8.87,0.00,0.00
15min,AgWx,beryljct,423,10JUN2021:23:30:00,51.8,12.86,50.7,50.1,50.6,51.1,50.0,19,19,18,0.231,9.5,10.5,8.4,3.858,4.1,44,9.6,6.6,0.00027,0.00041,66.0,67.5,9,0,0,.,8.87,0.00,0.00
15min,AgWx,beryljct,423,10JUN2021:23:45:00,50.8,12.85,49.2,49.0,49.7,50.3,48.8,19,21,17,0.229,9.0,10.5,7.6,2.214,3.5,48,8.4,5.2,0.00020,0.00032,65.6,67.4,9,0,0,.,8.87,0.00,0.00
15min,AgWx,bigpiney,439,10JUN2021:00:00:00,46.3,12.65,40.6,41.8,42.9,45.1,40.9,59,66,52,0.590,29.6,31.2,28.6,5.261,3.9,230,15,5.3,0.00017,0.00023,53.2,49.0,42,0,0,0.0,1.99,0.00,0.00
15min,AgWx,bigpiney,439,10JUN2021:00:15:00,45.3,12.64,36.9,37.1,38.0,41.5,36.9,73,76,67,0.568,30.1,31.8,29.3,3.814,5.1,223,5.0,6.6,0.00011,0.00014,53.2,49.0,42,0,0,0.0,1.99,0.00,0.00
15min,AgWx,bigpiney,439,10JUN2021:00:30:00,44.3,12.63,39.6,39.2,39.0,40.8,37.0,69,76,64,0.530,29.8,31.3,28.4,4.998,4.8,224,8.0,6.1,0.00012,0.00016,53.1,48.9,42,0,0,0.0,1.99,0.00,0.00
15min,AgWx,bigpiney,439,10JUN2021:00:45:00,43.7,12.62,39.3,39.4,39.2,39.9,38.6,68,71,66,0.549,29.4,30.2,28.7,4.757,5.2,215,8.8,6.7,0.00014,0.00019,53.0,49.0,42,0,0,0.0,1.99,0.00,0.00
15min,AgWx,bigpiney,439,10JUN2021:01:00:00,43.2,12.62,41.1,40.8,39.3,40.9,37.5,66,71,60,0.518,28.9,29.5,28.0,0.46,2.1,230,41,4.8,0.00006,0.00009,52.9,49.0,42,0,0,0.0,1.99,0.00,0.00
15min,AgWx,bigpiney,439,10JUN2021:01:15:00,42.9,12.61,42.0,41.9,41.8,42.8,40.6,56,60,53,0.476,27.2,28.0,25.9,0,0.2,277,25,1.7,-0.00006,-0.00009,52.8,49.0,42,0,0,0.0,1.99,0.00,0.00
15min,AgWx,bigpiney,439,10JUN2021:01:30:00,42.6,12.6,40.5,40.4,42.0,43.4,40.4,52,56,48,0.479,25.5,26.1,25.0,1.008,0.7,329,54,2.2,-0.00001,-0.00000,52.7,48.9,42,0,0,0.0,1.99,0.00,0.00
15min,AgWx,bigpiney,439,10JUN2021:01:45:00,42.3,12.59,42.8,42.2,41.4,42.2,40.4,54,56,52,0.471,25.9,26.3,25.6,3.113,1.2,250,25,3.1,0.00003,0.00006,52.6,49.0,42,0,0,0.0,1.99,0.00,0.00
15min,AgWx,bigpiney,439,10JUN2021:02:00:00,42.0,12.58,44.9,42.8,42.4,44.7,38.7,51,60,45,0.460,25.5,26.3,24.8,0.965,2.1,248,16,4.5,0.00011,0.00017,52.5,49.0,42,0,0,0.0,1.99,0.00,0.00
15min,AgWx,bigpiney,439,10JUN2021:02:15:00,41.4,12.56,40.1,40.9,42.0,44.4,39.4,51,58,45,0.469,25.3,26.1,24.4,1.995,0.9,209,54,3.1,0.00001,0.00003,52.4,48.9,42,0,0,0.0,1.99,0.00,0.00
15min,AgWx,bigpiney,439,10JUN2021:02:30:00,40.8,12.54,41.3,41.9,41.6,43.1,39.7,52,57,47,0.447,25.0,25.7,24.3,0,0.7,190,5.8,3.6,-0.00001,0.00000,52.2,49.0,42,0,0,0.0,1.99,0.00,0.00
15min,AgWx,bigpiney,439,10JUN2021:02:45:00,40.3,12.54,41.0,39.5,41.4,42.3,39.2,51,56,49,0.457,24.7,25.2,24.2,0.767,0.5,222,12,5.7,-0.00003,-0.00003,52.2,49.0,42,0,0,0.0,1.99,0.00,0.00
15min,AgWx,bigpiney,439,10JUN2021:03:00:00,39.8,12.53,43.9,43.2,41.5,43.2,39.8,51,55,49,0.478,25.0,26.0,24.2,1.469,1.3,174,37,4.1,0.00005,0.00008,52.0,48.9,42,0,0,0.0,1.99,0.00,0.00
15min,AgWx,bigpiney,439,10JUN2021:03:15:00,39.6,12.51,41.7,39.2,42.0,43.8,39.0,53,59,50,0.478,26.2,27.0,24.7,2.368,1.2,172,55,3.0,0.00003,0.00006,51.9,48.9,42,0,0,0.0,1.99,0.00,0.00
15min,AgWx,bigpiney,439,10JUN2021:03:30:00,39.6,12.51,39.1,39.1,42.3,44.1,39.1,53,59,49,0.474,26.4,27.2,25.6,2.85,2.4,164,61,5.1,0.00012,0.00018,51.8,48.9,42,0,0,0.0,1.99,0.00,0.00
15min,AgWx,bigpiney,439,10JUN2021:03:45:00,39.7,12.48,42.5,42.1,41.3,42.5,39.1,55,59,53,0.478,26.6,27.2,25.9,2.214,1.9,196,37,5.9,0.00008,0.00013,51.7,48.8,42,0,0,0.0,1.99,0.00,0.00
15min,AgWx,bigpiney,439,10JUN2021:04:00:00,39.8,12.49,43.4,42.8,42.0,42.8,41.2,52,55,50,0.469,25.9,26.3,25.4,0.855,1.2,229,33,3.8,0.00004,0.00007,51.6,48.9,42,0,0,0.0,1.99,0.00,0.00
15min,AgWx,bigpiney,439,10JUN2021:04:15:00,39.9,12.47,43.0,42.9,42.4,43.3,41.1,50,53,49,0.460,25.3,25.6,24.7,1.271,0.7,248,23,3.1,-0.00001,0.00000,51.5,48.8,42,0,0,0.0,1.99,0.00,0.00
15min,AgWx,bigpiney,439,10JUN2021:04:30:00,39.9,12.46,45.1,43.7,43.6,44.8,42.5,47,50,45,0.455,25.0,25.2,24.5,0.658,1.6,259,12,4.9,0.00008,0.00014,51.4,48.8,42,1,0,0.0,1.99,0.00,0.00
15min,AgWx,bigpiney,439,10JUN2021:04:45:00,39.9,12.45,45.1,44.4,43.9,44.8,43.1,46,48,45,0.456,24.7,24.9,24.4,1.337,0.8,313,42,2.8,0.00001,0.00003,51.3,48.8,42,4,0,0.0,1.99,0.00,0.00
15min,AgWx,bigpiney,439,10JUN2021:05:00:00,39.9,12.46,41.7,41.4,42.4,44.4,40.1,49,53,46,0.456,24.7,25.0,24.1,2.105,1.8,30,28,4.0,-0.00031,-0.00020,51.2,48.8,42,13,0,0.0,1.99,0.00,0.00
15min,AgWx,bigpiney,439,10JUN2021:05:15:00,40.2,12.49,41.3,41.5,41.6,42.2,41.1,52,53,51,0.466,25.3,25.6,24.8,0.57,1.8,60,12,2.8,-0.00017,-0.00006,51.0,48.7,42,42,0,0.0,1.99,0.00,0.00
15min,AgWx,bigpiney,439,10JUN2021:05:30:00,40.7,12.51,41.9,41.7,41.7,41.9,41.3,52,53,51,0.474,25.5,26.0,25.3,1.096,1.1,91,30,2.0,-0.00006,0.00001,50.9,48.7,42,76,0,0.0,1.99,0.00,0.00
15min,AgWx,bigpiney,439,10JUN2021:05:45:00,41.7,12.51,42.5,41.8,41.3,41.8,40.3,56,64,53,0.482,26.8,29.1,25.7,0.153,1.1,241,47,2.1,0.00012,0.00020,50.8,48.7,42,111,0,0.0,1.99,0.00,0.00
15min,AgWx,bigpiney,439,10JUN2021:06:00:00,43.1,12.53,43.3,43.1,42.4,43.1,41.4,56,61,52,0.512,28.0,29.4,25.6,0.811,0.7,229,69,3.6,0.00030,0.00036,50.7,48.7,42,151,0,0.0,1.99,0.00,0.00
15min,AgWx,bigpiney,439,10JUN2021:06:15:00,44.9,12.57,47.2,46.7,44.7,46.7,43.1,58,61,54,0.649,30.9,33.5,27.5,0,0.1,77,12,1.3,0.00051,0.00055,50.6,48.6,42,195,0,0.0,1.99,0.00,0.00
15min,AgWx,bigpiney,439,10JUN2021:06:30:00,47.6,12.59,59.1,57.9,53.8,57.9,46.8,49,60,41,0.683,34.9,37.0,33.5,10.15,4.8,216,13,10.7,0.00126,0.00173,50.5,48.5,42,237,0,0.0,1.99,0.00,0.00
15min,AgWx,bigpiney,439,10JUN2021:06:45:00,51.4,12.63,59.5,59.6,59.1,60.2,58.1,37,41,32,0.671,33.1,34.8,30.2,8.9,11.5,215,8.8,17.7,0.00236,0.00354,50.4,48.6,42,287,0,0.0,1.99,0.00,0.00
15min,AgWx,bigpiney,439,10JUN2021:07:00:00,55.0,12.67,60.6,61.0,60.6,61.0,59.6,34,39,31,0.637,32.4,34.4,30.1,9.58,12.0,212,9.9,16.1,0.00277,0.00409,50.3,48.5,42,335,0,0.0,1.99,0.00,0.00
15min,AgWx,bigpiney,439,10JUN2021:07:15:00,57.8,12.71,62.0,62.0,61.6,62.1,60.8,33,37,30,0.613,32.3,35.0,30.1,12.1,12.7,213,9.1,18.0,0.00315,0.00458,50.2,48.4,42,385,0,0.0,1.99,0.00,0.00
15min,AgWx,bigpiney,439,10JUN2021:07:30:00,60.0,12.9,62.6,62.3,62.1,62.3,61.9,30,34,28,0.553,30.6,33.2,28.4,17.67,16.5,214,10,23.3,0.00376,0.00555,50.1,48.4,42,434,0,0.0,1.99,0.00,0.00
15min,AgWx,bigpiney,439,10JUN2021:07:45:00,61.5,13.28,62.8,62.8,62.6,63.0,62.3,29,31,26,0.536,29.7,31.7,27.4,20.23,18.4,217,9.8,26.8,0.00418,0.00617,50.0,48.4,42,483,0,0.0,1.99,0.00,0.00
15min,AgWx,bigpiney,439,10JUN2021:08:00:00,62.7,13.54,63.5,63.1,63.0,63.4,62.7,28,30,26,0.589,29.5,31.5,28.0,19.86,19.7,220,10,26.3,0.00452,0.00663,49.9,48.4,42,531,0,0.0,1.99,0.00,0.00
15min,AgWx,bigpiney,439,10JUN2021:08:15:00,63.7,13.73,63.9,63.7,63.6,63.9,63.1,28,30,26,0.581,30.1,31.8,28.5,19.05,18.7,217,10,25.2,0.00472,0.00681,49.8,48.3,42,576,0,0.0,1.99,0.00,0.00